| time (UTC) | temp F | wind direction | speed knots | gust knots | rain 1hr in | rain 24hr in | rain mn in | humidity % | barometer mb |
| 20260506190031 | 61 | 360 | 1.7 | 7.8 | 0.01 | 0.18 | 0.18 | 95 | 1005.2 |
| 20260506184533 | 61 | 360 | 1.7 | 8.7 | 0.01 | 0.18 | 0.18 | 95 | 1005.2 |
| 20260506183033 | 61 | 360 | 1.7 | 7.0 | 0.01 | 0.18 | 0.18 | 95 | 1005.3 |
| 20260506181530 | 61 | 360 | 0.9 | 7.8 | 0.00 | 0.17 | 0.17 | 96 | 1005.4 |
| 20260506180036 | 61 | 360 | 2.6 | 9.6 | 0.00 | 0.17 | 0.17 | 96 | 1005.5 |
| 20260506174534 | 61 | 360 | 1.7 | 10.4 | 0.01 | 0.17 | 0.17 | 96 | 1005.5 |
| 20260506173039 | 61 | 360 | 2.6 | 9.6 | 0.04 | 0.17 | 0.17 | 96 | 1005.5 |
| 20260506171544 | 61 | 360 | 0.9 | 9.6 | 0.05 | 0.17 | 0.17 | 96 | 1005.6 |
| 20260506170033 | 60 | 360 | 3.5 | 12.2 | 0.06 | 0.17 | 0.17 | 95 | 1005.8 |
| 20260506164532 | 60 | 360 | 1.7 | 8.7 | 0.07 | 0.16 | 0.16 | 95 | 1006.0 |
| 20260506163034 | 60 | 360 | 2.6 | 7.8 | 0.06 | 0.13 | 0.13 | 96 | 1006.2 |
| 20260506161532 | 60 | 360 | 0.9 | 7.8 | 0.07 | 0.12 | 0.12 | 95 | 1006.4 |
| 20260506160031 | 59 | 360 | 0.9 | 7.8 | 0.07 | 0.11 | 0.11 | 95 | 1006.5 |
| 20260506154533 | 59 | 0 | 0.0 | 1.7 | 0.08 | 0.09 | 0.09 | 93 | 1006.8 |
| 20260506153032 | 58 | 0 | 0.0 | 0.9 | 0.06 | 0.06 | 0.06 | 92 | 1006.8 |
| 20260506151538 | 58 | 0 | 0.0 | 0.0 | 0.05 | 0.05 | 0.05 | 91 | 1006.8 |
| 20260506150032 | 58 | 0 | 0.0 | 0.9 | 0.04 | 0.04 | 0.04 | 90 | 1007.0 |
| 20260506144534 | 58 | 0 | 0.0 | 0.9 | 0.01 | 0.01 | 0.01 | 90 | 1007.2 |
| 20260506143034 | 58 | 0 | 0.0 | 0.9 | 0.00 | 0.00 | 0.00 | 89 | 1007.4 |
| 20260506141532 | 58 | 0 | 0.0 | 0.9 | 0.00 | 0.00 | 0.00 | 88 | 1007.6 |
| 20260506140034 | 58 | 0 | 0.0 | 0.9 | 0.00 | 0.00 | 0.00 | 89 | 1007.4 |
| 20260506134529 | 57 | 0 | 0.0 | 0.9 | 0.00 | 0.00 | 0.00 | 89 | 1007.2 |
| 20260506133031 | 57 | 0 | 0.0 | 0.9 | 0.00 | 0.00 | 0.00 | 90 | 1007.2 |
| 20260506131542 | 56 | 0 | 0.0 | 0.9 | 0.00 | 0.00 | 0.00 | 91 | 1007.0 |
| 20260506130030 | 56 | 0 | 0.0 | 0.9 | 0.00 | 0.00 | 0.00 | 91 | 1007.2 |
| 20260506124534 | 55 | 0 | 0.0 | 1.7 | 0.00 | 0.00 | 0.00 | 91 | 1007.2 |
| 20260506123030 | 55 | 0 | 0.0 | 0.9 | 0.00 | 0.00 | 0.00 | 92 | 1007.7 |
| 20260506121529 | 55 | 0 | 0.0 | 0.9 | 0.00 | 0.00 | 0.00 | 93 | 1008.1 |
| 20260506120033 | 55 | 0 | 0.0 | 0.9 | 0.00 | 0.00 | 0.00 | 93 | 1008.0 |
| 20260506114538 | 54 | 360 | 0.0 | 1.7 | 0.00 | 0.00 | 0.00 | 93 | 1007.7 |
| 20260506113031 | 54 | 0 | 0.0 | 1.7 | 0.00 | 0.00 | 0.00 | 93 | 1007.7 |
| 20260506111530 | 54 | 0 | 0.0 | 0.9 | 0.00 | 0.00 | 0.00 | 93 | 1007.7 |
| 20260506110034 | 54 | 0 | 0.0 | 0.0 | 0.00 | 0.00 | 0.00 | 93 | 1007.2 |
| 20260506104537 | 53 | 0 | 0.0 | 0.9 | 0.00 | 0.00 | 0.00 | 93 | 1007.4 |
| 20260506103034 | 53 | 0 | 0.0 | 1.7 | 0.00 | 0.00 | 0.00 | 92 | 1007.4 |
| 20260506101533 | 53 | 0 | 0.0 | 0.9 | 0.00 | 0.00 | 0.00 | 92 | 1007.2 |
| 20260506100032 | 53 | 0 | 0.0 | 1.7 | 0.00 | 0.00 | 0.00 | 92 | 1007.1 |
| 20260506094532 | 53 | 0 | 0.0 | 0.9 | 0.00 | 0.00 | 0.00 | 90 | 1007.3 |
| 20260506093033 | 54 | 0 | 0.0 | 0.0 | 0.00 | 0.00 | 0.00 | 89 | 1007.0 |
| 20260506091533 | 54 | 0 | 0.0 | 0.0 | 0.00 | 0.00 | 0.00 | 90 | 1007.1 |
| 20260506090032 | 54 | 0 | 0.0 | 0.0 | 0.00 | 0.00 | 0.00 | 90 | 1007.1 |
| 20260506084539 | 54 | 0 | 0.0 | 1.7 | 0.00 | 0.00 | 0.00 | 90 | 1007.4 |
| 20260506083032 | 55 | 360 | 0.0 | 2.6 | 0.00 | 0.00 | 0.00 | 90 | 1007.6 |
| 20260506081529 | 55 | 0 | 0.0 | 3.5 | 0.00 | 0.00 | 0.00 | 89 | 1007.6 |
| 20260506073032 | 56 | 0 | 0.0 | 0.0 | 0.00 | 0.00 | 0.00 | 87 | 1008.1 |
| 20260506071532 | 57 | 0 | 0.0 | 0.0 | 0.00 | 0.00 | 0.00 | 87 | 1008.1 |
| 20260506061532 | 58 | 0 | 0.0 | 0.0 | 0.00 | 0.00 | 0.00 | 84 | 1008.7 |
| 20260506044540 | 60 | 360 | 0.0 | 2.6 | 0.00 | 0.00 | 0.00 | 81 | 1008.8 |
| 20260506043035 | 60 | 0 | 0.0 | 1.7 | 0.00 | 0.00 | 0.00 | 81 | 1009.0 |
| 20260506041535 | 61 | 360 | 0.9 | 5.2 | 0.00 | 0.00 | 0.00 | 83 | 1008.8 |
| 20260506040034 | 61 | 360 | 0.9 | 3.5 | 0.00 | 0.00 | 0.00 | 86 | 1008.7 |
| 20260506034533 | 62 | 360 | 0.0 | 1.7 | 0.00 | 0.00 | 0.00 | 86 | 1008.5 |
| 20260506033035 | 62 | 360 | 0.0 | 1.7 | 0.00 | 0.00 | 0.00 | 85 | 1007.9 |
| 20260506031537 | 62 | 360 | 0.0 | 3.5 | 0.00 | 0.00 | 0.00 | 86 | 1007.4 |
| 20260506030055 | 62 | 0 | 0.0 | 1.7 | 0.00 | 0.00 | 0.00 | 85 | 1007.9 |
| 20260506024549 | 63 | 0 | 0.0 | 0.0 | 0.00 | 0.00 | 0.00 | 85 | 1007.3 |
| 20260506023030 | 63 | 0 | 0.0 | 0.0 | 0.00 | 0.00 | 0.00 | 84 | 1007.3 |
| 20260506021532 | 63 | 0 | 0.0 | 0.0 | 0.00 | 0.00 | 0.00 | 83 | 1007.2 |
| 20260506020033 | 63 | 0 | 0.0 | 0.9 | 0.00 | 0.00 | 0.00 | 82 | 1007.4 |
| 20260506014539 | 63 | 86 | 0.0 | 1.7 | 0.00 | 0.00 | 0.00 | 81 | 1007.5 |
| 20260506013035 | 64 | 0 | 0.0 | 0.0 | 0.00 | 0.00 | 0.00 | 81 | 1007.5 |
| 20260506011537 | 64 | 0 | 0.0 | 0.0 | 0.00 | 0.00 | 0.00 | 80 | 1007.5 |
| 20260506010031 | 64 | 0 | 0.0 | 0.0 | 0.00 | 0.00 | 0.00 | 80 | 1007.3 |
| 20260506004544 | 64 | 0 | 0.0 | 0.0 | 0.00 | 0.00 | 0.00 | 79 | 1007.0 |
| 20260506003039 | 64 | 145 | 0.0 | 2.6 | 0.00 | 0.00 | 0.00 | 79 | 1006.6 |
| 20260506001531 | 65 | 111 | 0.9 | 3.5 | 0.00 | 0.00 | 0.00 | 78 | 1006.4 |
| 20260506000030 | 65 | 0 | 0.0 | 4.3 | 0.00 | 0.00 | 0.00 | 77 | 1006.5 |
| 20260505234534 | 65 | 360 | 0.0 | 7.0 | 0.00 | 0.00 | 0.00 | 77 | 1006.6 |
| 20260505233032 | 66 | 86 | 0.9 | 4.3 | 0.00 | 0.00 | 0.00 | 76 | 1006.1 |
| 20260505231533 | 66 | 162 | 0.9 | 4.3 | 0.00 | 0.00 | 0.00 | 76 | 1006.1 |
| 20260505230042 | 67 | 70 | 1.7 | 5.2 | 0.00 | 0.00 | 0.00 | 74 | 1006.0 |
| 20260505224535 | 69 | 360 | 0.0 | 1.7 | 0.00 | 0.00 | 0.00 | 70 | 1006.1 |
| 20260505223029 | 71 | 360 | 0.9 | 4.3 | 0.00 | 0.00 | 0.00 | 66 | 1006.4 |
| 20260505221532 | 73 | 360 | 0.9 | 4.3 | 0.00 | 0.00 | 0.00 | 60 | 1006.8 |
| 20260505220040 | 76 | 360 | 2.6 | 9.6 | 0.00 | 0.00 | 0.00 | 50 | 1005.5 |
| 20260505214535 | 78 | 360 | 0.9 | 7.0 | 0.00 | 0.00 | 0.00 | 40 | 1004.5 |
| 20260505213035 | 78 | 360 | 1.7 | 9.6 | 0.00 | 0.00 | 0.00 | 40 | 1003.9 |
| 20260505211534 | 79 | 303 | 3.5 | 11.3 | 0.00 | 0.00 | 0.00 | 38 | 1003.5 |
| 20260505210031 | 79 | 192 | 4.3 | 18.2 | 0.00 | 0.00 | 0.00 | 40 | 1003.3 |
| 20260505204535 | 79 | 296 | 2.6 | 11.3 | 0.00 | 0.00 | 0.00 | 40 | 1003.2 |
| 20260505203037 | 80 | 288 | 2.6 | 15.6 | 0.00 | 0.00 | 0.00 | 41 | 1003.1 |
| 20260505201535 | 81 | 169 | 3.5 | 11.3 | 0.00 | 0.00 | 0.00 | 37 | 1003.7 |
| 20260505200033 | 82 | 300 | 6.1 | 19.1 | 0.00 | 0.00 | 0.00 | 37 | 1003.5 |
| 20260505194533 | 82 | 287 | 3.5 | 18.2 | 0.00 | 0.00 | 0.00 | 40 | 1003.4 |
| 20260505193035 | 81 | 312 | 5.2 | 19.1 | 0.00 | 0.00 | 0.00 | 39 | 1003.5 |
| 20260505191539 | 80 | 265 | 3.5 | 13.0 | 0.00 | 0.00 | 0.00 | 40 | 1003.8 |